Puyallup, WA

1:42 AM PDT on March 29, 2017 (GMT -0700)
Pierce County - Thun Field

Weather History for KPLU - April, 2014

Change the Weather History Date:

Saturday, April 26, 2014

  Actual Average (KTCM) Record (KTCM)
Temperature  
Mean Temperature 47 °F -  
Max Temperature 57 °F 58 °F 80 °F (2004)
Min Temperature 37 °F 38 °F 28 °F (2008)
Degree Days  
Heating Degree Days 18    
Moisture  
Dew Point 36 °F    
Average Humidity 68    
Maximum Humidity 100    
Minimum Humidity 33    
Precipitation  
Precipitation 0.05 in - - ()
Sea Level Pressure  
Sea Level Pressure 29.79 in    
Wind  
Wind Speed 3 mph (SSW)    
Max Wind Speed 10 mph    
Max Gust Speed 17 mph    
Visibility 10 miles    
Events Rain    
Averages and records for this station are not official NWS values.
T = Trace of Precipitation, MM = Missing Value Source: NWS Daily Summary

Daily Weather History Graph

Daily Weather History Graph

Search for Another Location

Airport or City:

Trip Planner

Search our weather history database for the weather conditions in past years. The results will help you decide how hot, cold, wet, or windy it might be!

Date:

Astronomy

Apr. 26, 2014 Rise Set
Actual Time 6:01 AM PDT 8:13 PM PDT
Civil Twilight 5:28 AM PDT 8:46 PM PDT
Nautical Twilight 4:46 AM PDT 9:28 PM PDT
Astronomical Twilight 4:00 AM PDT 10:15 PM PDT
Moon 4:40 AM PDT (4/26) 5:38 PM PDT (4/26)
Length of Visible Light 15h 18m
Length of Day
14h 11m
Waning Crescent, 7% of the Moon is Illuminated
Apr 26
Waning Crescent
Apr 28
New
May 6
First Quarter
May 14
Full
May 21
Last Quarter

Hourly Weather History & Observations

Time (PDT) Temp. Windchill Dew Point Humidity Pressure Visibility Wind Dir Wind Speed Gust Speed Precip Events Conditions
12:15 AM 44.6 °F 42.2 °F 41.0 °F 87% 29.86 in 10.0 mi SW 4.6 mph - N/A   Unknown
12:35 AM 44.6 °F - 41.0 °F 87% 29.86 in 10.0 mi Calm Calm - N/A   Unknown
12:55 AM 44.6 °F - 39.2 °F 81% 29.86 in 10.0 mi Calm Calm - N/A   Unknown
1:15 AM 44.6 °F - 39.2 °F 81% 29.86 in 10.0 mi Calm Calm - N/A   Unknown
1:35 AM 44.6 °F - 39.2 °F 81% 29.86 in 10.0 mi Calm Calm - N/A   Unknown
1:55 AM 44.6 °F - 39.2 °F 81% 29.86 in 10.0 mi Calm Calm - N/A   Unknown
2:15 AM 42.8 °F - 39.2 °F 87% 29.85 in 10.0 mi Calm Calm - N/A   Unknown
2:35 AM 42.8 °F - 39.2 °F 87% 29.85 in 10.0 mi Calm Calm - N/A   Unknown
2:55 AM 41.0 °F 39.0 °F 39.2 °F 93% 29.85 in 10.0 mi South 3.5 mph - N/A   Unknown
3:15 AM 41.0 °F - 39.2 °F 93% 29.85 in 10.0 mi Calm Calm - N/A   Unknown
3:35 AM 41.0 °F - 39.2 °F 93% 29.86 in 10.0 mi Calm Calm - N/A   Unknown
3:55 AM 41.0 °F - 39.2 °F 93% 29.85 in 10.0 mi Calm Calm - N/A   Unknown
4:15 AM 41.0 °F - 39.2 °F 93% 29.86 in 10.0 mi Calm Calm - N/A   Unknown
4:55 AM 41.0 °F - 39.2 °F 93% 29.86 in 10.0 mi Calm Calm - N/A   Unknown
5:15 AM 39.2 °F - 37.4 °F 93% 29.86 in 10.0 mi Calm Calm - N/A   Unknown
5:35 AM 39.2 °F - 37.4 °F 93% 29.86 in 10.0 mi Calm Calm - N/A   Unknown
5:55 AM 39.2 °F - 37.4 °F 93% 29.86 in 10.0 mi Calm Calm - N/A   Unknown
6:15 AM 37.4 °F - 37.4 °F 100% 29.86 in 10.0 mi Calm Calm - N/A   Unknown
6:35 AM 37.4 °F - 37.4 °F 100% 29.85 in 10.0 mi Calm Calm - N/A   Unknown
6:55 AM 37.4 °F - 37.4 °F 100% 29.85 in 10.0 mi Calm Calm - N/A   Unknown
7:15 AM 41.0 °F - 37.4 °F 87% 29.85 in 10.0 mi Calm Calm - N/A   Unknown
7:35 AM 44.6 °F - 37.4 °F 76% 29.85 in 10.0 mi Calm Calm - N/A   Unknown
7:55 AM 46.4 °F 44.3 °F 37.4 °F 71% 29.85 in 10.0 mi SSW 4.6 mph - N/A   Unknown
8:15 AM 46.4 °F 43.5 °F 37.4 °F 71% 29.85 in 10.0 mi SW 5.8 mph - N/A   Unknown
8:35 AM 46.4 °F 44.3 °F 37.4 °F 71% 29.85 in 10.0 mi SSW 4.6 mph - N/A   Unknown
8:55 AM 48.2 °F - 37.4 °F 66% 29.84 in 10.0 mi SW 4.6 mph - N/A   Unknown
9:15 AM 48.2 °F - 37.4 °F 66% 29.83 in 10.0 mi SW 5.8 mph - N/A   Unknown
9:35 AM 50.0 °F - 37.4 °F 62% 29.83 in 10.0 mi SSW 5.8 mph - N/A   Unknown
9:55 AM 48.2 °F - 35.6 °F 62% 29.83 in 10.0 mi WSW 5.8 mph - N/A   Unknown
10:15 AM 48.2 °F - 35.6 °F 62% 29.83 in 10.0 mi WSW 5.8 mph - N/A   Unknown
10:35 AM 50.0 °F - 35.6 °F 58% 29.83 in 10.0 mi SSW 5.8 mph - N/A   Unknown
10:55 AM 51.8 °F - 32.0 °F 47% 29.83 in 10.0 mi SW 5.8 mph - N/A   Unknown
11:15 AM 48.2 °F - 35.6 °F 62% 29.83 in 10.0 mi West 9.2 mph - N/A   Unknown
11:35 AM 51.8 °F - 32.0 °F 47% 29.83 in 10.0 mi SSW 3.5 mph - N/A   Unknown
11:55 AM 51.8 °F - 32.0 °F 47% 29.82 in 10.0 mi SSW 5.8 mph - N/A   Unknown
12:15 PM 53.6 °F - 32.0 °F 44% 29.82 in 10.0 mi SSW 5.8 mph - N/A   Unknown
12:35 PM 53.6 °F - 32.0 °F 44% 29.81 in 10.0 mi South 8.1 mph - N/A   Unknown
12:55 PM 55.4 °F - 30.2 °F 38% 29.80 in 10.0 mi SW 8.1 mph - N/A   Unknown
1:15 PM 53.6 °F - 32.0 °F 44% 29.79 in 10.0 mi West 3.5 mph - N/A   Unknown
1:35 PM 55.4 °F - 30.2 °F 38% 29.79 in 10.0 mi South 6.9 mph - N/A   Unknown
1:55 PM 55.4 °F - 28.4 °F 36% 29.78 in 10.0 mi SSW 6.9 mph - N/A   Unknown
2:15 PM 53.6 °F - 30.2 °F 41% 29.78 in 10.0 mi Calm Calm - N/A   Unknown
2:35 PM 55.4 °F - 32.0 °F 41% 29.77 in 10.0 mi WSW 5.8 mph - N/A   Unknown
2:55 PM 57.2 °F - 30.2 °F 36% 29.77 in 10.0 mi South 5.8 mph 16.1 mph N/A   Unknown
3:15 PM 57.2 °F - 30.2 °F 36% 29.76 in 10.0 mi SW 5.8 mph - N/A   Unknown
3:35 PM 57.2 °F - 32.0 °F 38% 29.76 in 10.0 mi SSW 3.5 mph - N/A   Unknown
3:55 PM 57.2 °F - 28.4 °F 33% 29.75 in 10.0 mi SW 6.9 mph - N/A   Unknown
4:15 PM 57.2 °F - 28.4 °F 33% 29.74 in 10.0 mi WSW 5.8 mph - N/A   Unknown
4:35 PM 57.2 °F - 28.4 °F 33% 29.73 in 10.0 mi South 4.6 mph - N/A   Unknown
4:55 PM 55.4 °F - 30.2 °F 38% 29.73 in 10.0 mi South 4.6 mph - N/A   Unknown
5:15 PM 55.4 °F - 32.0 °F 41% 29.73 in 10.0 mi WSW 6.9 mph - N/A   Unknown
5:35 PM 55.4 °F - 32.0 °F 41% 29.73 in 10.0 mi South 6.9 mph - N/A   Unknown
5:55 PM 53.6 °F - 33.8 °F 47% 29.73 in 10.0 mi South 6.9 mph - N/A Rain Light Rain
6:15 PM 53.6 °F - 33.8 °F 47% 29.73 in 10.0 mi West 6.9 mph 17.3 mph N/A   Unknown
6:35 PM 50.0 °F - 39.2 °F 66% 29.72 in 10.0 mi WSW 10.4 mph - N/A   Unknown
7:15 PM 50.0 °F - 39.2 °F 66% 29.70 in 10.0 mi Calm Calm - N/A   Unknown
7:35 PM 50.0 °F - 37.4 °F 62% 29.70 in 10.0 mi Calm Calm - N/A   Unknown
7:55 PM 50.0 °F - 39.2 °F 66% 29.69 in 10.0 mi SW 4.6 mph - N/A   Unknown
8:15 PM 48.2 °F - 41.0 °F 76% 29.69 in 9.0 mi Calm Calm - N/A Rain Light Rain
8:35 PM 48.2 °F - 41.0 °F 76% 29.69 in 9.0 mi South 4.6 mph - N/A Rain Light Rain
8:55 PM 46.4 °F 42.4 °F 41.0 °F 81% 29.69 in 6.0 mi South 8.1 mph 17.3 mph 0.01 in Rain Light Rain
9:15 PM 46.4 °F 44.3 °F 41.0 °F 81% 29.68 in 9.0 mi South 4.6 mph - N/A Rain Light Rain
9:35 PM 46.4 °F - 41.0 °F 81% 29.68 in 10.0 mi Calm Calm - N/A   Unknown
9:55 PM 46.4 °F 43.5 °F 41.0 °F 81% 29.68 in 7.0 mi South 5.8 mph - 0.01 in Rain Light Rain
10:15 PM 44.6 °F 39.7 °F 41.0 °F 87% 29.68 in 5.0 mi South 9.2 mph - 0.02 in Rain Light Rain
10:35 PM 44.6 °F 40.7 °F 42.8 °F 93% 29.67 in 7.0 mi South 6.9 mph - 0.03 in Rain Light Rain
10:55 PM 44.6 °F 43.1 °F 42.8 °F 93% 29.66 in 10.0 mi South 3.5 mph - 0.03 in   Unknown
11:15 PM 44.6 °F 40.7 °F 41.0 °F 87% 29.66 in 10.0 mi South 6.9 mph - N/A   Unknown
11:35 PM 46.4 °F 44.3 °F 41.0 °F 81% 29.66 in 10.0 mi South 4.6 mph - N/A Rain Light Rain
11:55 PM 44.6 °F 41.4 °F 41.0 °F 87% 29.66 in 10.0 mi South 5.8 mph - N/A   Unknown